User: anonymous   Login
Location: Albany
(35.0000°S, 118.0000°E)
Time: 06:32:30
(UTC-04:00)
Language:

ADEOS Rocket - Orbit

View from above orbital plane
View from above orbital plane
View from above satellite
View from above satellite

Ground track
Ground track

The orbit data is extracted from the following two-line orbital elements,

1 24279U 96046C   17113.86477341 +.00000033 +00000-0 +84420-4 0  9990
2 24279 098.7485 064.5463 0301097 067.2255 351.0673 13.47082213016937
Epoch (UTC): 23 April 2017 20:45:16
Eccentricity: 0.0301097
inclination: 98.7485°
perigee height: 858 km
apogee height: 1307 km
right ascension of ascending node: 64.5463°
argument of perigee: 67.2255°
revolutions per day: 13.47082213
mean anomaly at epoch: 351.0673°
orbit number at epoch: 1693

The dashed part of the orbit path shows where the satellite is in the earth's shadow,  

DLR